Location: Austin
(30.3000°N, 97.7500°W)
Time: 04:47:31
(UTC-05:00)

Centaur AC-42 - Pass Details

Date: 18 March 2023
Orbit: 626 x 36258 km, 21.0° (Epoch: 31 March)

Event Time Altitude Azimuth Distance (km) Brightness Sun altitude
Rises 21:42:39 0° 253° (WSW) 3,194 6.1 -26.7°
Reaches altitude 10° 21:44:15 10° 245° (WSW) 2,556 5.3 -27.1°
Maximum altitude 21:49:26 49° 169° (S) 2,025 3.8 -28.1°
Enters shadow 21:52:10 42° 132° (SE) 2,849 4.4 -28.7°
Exits shadow 22:36:55 - 101° (E) 17,549 8.4 -37.7°
Sets 23:00:51 0° 102° (ESE) 22,835 9.1 -42.2°
